Location: Asheville, NC
(35.6000°N, 82.5500°W)
Time: 13:56:15
(UTC-04:00)

Vanguard 1 Rocket - Pass Details

Date: 17 March 2018
Orbit: 653 x 4224 km, 34.3° (Epoch: 18 June)

Event Time Altitude Azimuth Distance (km) Brightness Sun altitude
Rises 18:55:41 0° 251° (WSW) 3,418 12.4 8.0°
Reaches altitude 10° 18:57:41 10° 249° (WSW) 2,684 11.9 7.6°
Maximum altitude 19:04:02 74° 165° (SSE) 1,426 8.5 6.4°
Drops below altitude 10° 19:16:26 10° 84° (E) 5,008 10.5 3.8°
Sets 19:21:38 0° 83° (E) 6,609 11.1 2.8°
